Location: Lombard
(41.8800°N, 88.0080°W)
Time: 12:42:17
(UTC-05:00)

A-11 Canister half - Pass Details

Date: 29 January 2023
Orbit: 1512 x 1687 km, 47.2° (Epoch: 20 March)

Event Time Altitude Azimuth Distance (km) Brightness Sun altitude
Rises 20:29:33 0° 289° (WNW) 4,660 12.4 -38.4°
Reaches altitude 10° 20:34:02 10° 270° (W) 3,669 11.7 -39.2°
Maximum altitude 20:39:11 16° 235° (SW) 3,182 11.0 -40.2°
Drops below altitude 10° 20:44:23 10° 200° (SSW) 3,680 11.0 -41.1°
Enters shadow 20:46:19 - 191° (S) 4,063 11.2 -41.4°
Sets 20:48:56 0° 181° (S) 4,680 - -41.9°
